TimeEDT,TemperatureF,Dew PointF,Humidity,Sea Level PressureIn,VisibilityMPH,Wind Direction,Wind SpeedMPH,Gust SpeedMPH,PrecipitationIn,Events,Conditions,WindDirDegrees,DateUTC
12:51 AM,48.0,46.9,96,29.75,8.0,Calm,Calm,-,N/A,,Mostly Cloudy,0,2013-06-14 04:51:00
1:51 AM,46.0,45.0,96,29.74,7.0,Calm,Calm,-,N/A,,Clear,0,2013-06-14 05:51:00
2:51 AM,45.0,44.1,97,29.73,10.0,Calm,Calm,-,N/A,,Clear,0,2013-06-14 06:51:00
3:35 AM,44.6,42.8,93,29.74,2.0,Calm,Calm,-,N/A,,Clear,0,2013-06-14 07:35:00
3:44 AM,42.8,42.8,100,29.74,6.0,Calm,Calm,-,N/A,,Partly Cloudy,0,2013-06-14 07:44:00
3:51 AM,43.0,42.1,97,29.75,7.0,Calm,Calm,-,N/A,,Clear,0,2013-06-14 07:51:00
3:59 AM,44.6,42.8,93,29.74,7.0,Calm,Calm,-,N/A,,Scattered Clouds,0,2013-06-14 07:59:00
4:47 AM,42.8,42.8,100,29.75,7.0,Calm,Calm,-,N/A,,Mostly Cloudy,0,2013-06-14 08:47:00
4:51 AM,43.0,42.1,97,29.76,9.0,Calm,Calm,-,N/A,,Mostly Cloudy,0,2013-06-14 08:51:00
4:58 AM,42.8,42.8,100,29.75,9.0,Calm,Calm,-,N/A,,Overcast,0,2013-06-14 08:58:00
5:16 AM,42.8,42.8,100,29.76,1.5,Calm,Calm,-,N/A,,Overcast,0,2013-06-14 09:16:00
5:22 AM,44.6,42.8,93,29.76,0.2,Calm,Calm,-,N/A,Fog,Fog,0,2013-06-14 09:22:00
5:51 AM,45.0,45.0,100,29.78,0.2,Calm,Calm,-,N/A,Fog,Fog,0,2013-06-14 09:51:00
6:39 AM,46.4,46.4,100,29.77,1.0,Calm,Calm,-,N/A,,Overcast,0,2013-06-14 10:39:00
6:51 AM,48.0,48.0,100,29.77,0.5,Calm,Calm,-,N/A,Fog,Fog,0,2013-06-14 10:51:00
7:24 AM,51.8,50.0,94,29.77,1.8,Calm,Calm,-,N/A,,Overcast,0,2013-06-14 11:24:00
7:28 AM,51.8,51.8,100,29.77,3.0,Calm,Calm,-,N/A,,Mostly Cloudy,0,2013-06-14 11:28:00
7:41 AM,51.8,51.8,100,29.78,10.0,Calm,Calm,-,N/A,,Overcast,0,2013-06-14 11:41:00
7:51 AM,52.0,51.1,97,29.78,10.0,Calm,Calm,-,N/A,,Mostly Cloudy,0,2013-06-14 11:51:00
8:04 AM,55.4,51.8,88,29.78,10.0,Variable,3.5,-,N/A,,Scattered Clouds,0,2013-06-14 12:04:00
8:51 AM,57.9,51.1,78,29.79,10.0,Variable,4.6,-,N/A,,Clear,0,2013-06-14 12:51:00
9:51 AM,63.0,53.1,70,29.79,10.0,Variable,3.5,-,N/A,,Clear,0,2013-06-14 13:51:00
10:51 AM,66.9,51.1,57,29.80,10.0,North,9.2,-,N/A,,Mostly Cloudy,10,2013-06-14 14:51:00
11:51 AM,64.9,50.0,58,29.81,10.0,NW,8.1,19.6,N/A,,Mostly Cloudy,320,2013-06-14 15:51:00
12:51 PM,66.9,46.9,49,29.81,10.0,North,8.1,16.1,N/A,,Mostly Cloudy,360,2013-06-14 16:51:00
1:51 PM,69.1,46.9,45,29.82,10.0,North,10.4,18.4,N/A,,Scattered Clouds,10,2013-06-14 17:51:00
2:51 PM,71.1,46.9,42,29.82,10.0,NNW,8.1,19.6,N/A,,Partly Cloudy,340,2013-06-14 18:51:00
3:51 PM,68.0,50.0,52,29.82,10.0,Variable,5.8,-,N/A,,Overcast,0,2013-06-14 19:51:00
4:51 PM,70.0,50.0,49,29.82,10.0,WNW,11.5,17.3,N/A,,Mostly Cloudy,300,2013-06-14 20:51:00
5:00 PM,69.8,51.8,53,29.83,10.0,Variable,6.9,17.3,N/A,Thunderstorm,Mostly Cloudy,0,2013-06-14 21:00:00
5:15 PM,69.8,51.8,53,29.83,10.0,NW,10.4,17.3,N/A,,Mostly Cloudy,320,2013-06-14 21:15:00
5:35 PM,68.0,51.8,56,29.83,10.0,NW,8.1,19.6,N/A,Thunderstorm,Overcast,320,2013-06-14 21:35:00
5:51 PM,68.0,50.0,52,29.83,10.0,NNW,12.7,21.9,N/A,Thunderstorm,Thunderstorm,330,2013-06-14 21:51:00
6:02 PM,69.8,48.2,46,29.83,10.0,NW,9.2,19.6,N/A,,Mostly Cloudy,310,2013-06-14 22:02:00
6:13 PM,69.8,48.2,46,29.83,10.0,NNW,8.1,16.1,N/A,Thunderstorm,Partly Cloudy,340,2013-06-14 22:13:00
6:28 PM,66.2,48.2,52,29.84,10.0,NNW,9.2,-,N/A,,Clear,340,2013-06-14 22:28:00
6:51 PM,68.0,46.0,45,29.85,10.0,NW,8.1,16.1,N/A,,Mostly Cloudy,310,2013-06-14 22:51:00
7:51 PM,64.9,46.0,50,29.86,10.0,NW,8.1,-,N/A,,Clear,320,2013-06-14 23:51:00
8:51 PM,61.0,42.1,50,29.86,10.0,Calm,Calm,-,N/A,,Clear,0,2013-06-15 00:51:00
9:51 PM,55.9,42.1,60,29.88,10.0,Calm,Calm,-,N/A,,Clear,0,2013-06-15 01:51:00
10:51 PM,46.0,42.1,86,29.90,10.0,Calm,Calm,-,N/A,,Clear,0,2013-06-15 02:51:00
11:51 PM,42.1,41.0,96,29.92,10.0,Calm,Calm,-,N/A,,Clear,0,2013-06-15 03:51:00